EN

Hourly Weather Laguna

Today, 5 August, Thursday

Time Temperature Precipitation Wind Pressure Humidity
00:00 +15°C° 0 mm 4 mps 758 mmHg 79%
01:00 +14°C° 0 mm 4 mps 758 mmHg 83%
02:00 +14°C° 0 mm 3 mps 758 mmHg 85%
03:00 +14°C° 0 mm 3 mps 759 mmHg 86%
04:00 +13°C° 0 mm 3 mps 759 mmHg 87%
05:00 +14°C° 0 mm 4 mps 759 mmHg 82%
06:00 +15°C° 0 mm 4 mps 759 mmHg 77%
07:00 +16°C° 0 mm 5 mps 760 mmHg 72%
08:00 +20°C° 0 mm 5 mps 760 mmHg 61%
09:00 +23°C° 0 mm 5 mps 760 mmHg 49%
10:00 +27°C° 0 mm 5 mps 760 mmHg 38%
11:00 +29°C° 0 mm 5 mps 759 mmHg 33%
12:00 +32°C° 0 mm 5 mps 759 mmHg 28%
13:00 +34°C° 0 mm 5 mps 759 mmHg 23%
14:00 +34°C° 0 mm 5 mps 758 mmHg 22%
15:00 +34°C° 0 mm 5 mps 758 mmHg 21%
16:00 +34°C° 0 mm 5 mps 757 mmHg 21%
17:00 +32°C° 0 mm 5 mps 757 mmHg 28%
18:00 +28°C° 0 mm 4 mps 757 mmHg 35%
19:00 +25°C° 0 mm 4 mps 757 mmHg 42%
20:00 +22°C° 0 mm 3 mps 758 mmHg 52%
21:00 +20°C° 0 mm 3 mps 758 mmHg 61%
22:00 +18°C° 0 mm 2 mps 758 mmHg 70%
23:00 +17°C° 0 mm 2 mps 758 mmHg 74%

Tomorrow, 6 August, Friday

Time Temperature Precipitation Wind Pressure Humidity
00:00 +17°C° 0 mm 2 mps 758 mmHg 78%
01:00 +16°C° 0 mm 2 mps 758 mmHg 81%
02:00 +16°C° 0 mm 1 mps 758 mmHg 81%
03:00 +16°C° 0 mm 1 mps 759 mmHg 81%
04:00 +16°C° 0 mm 1 mps 759 mmHg 81%
05:00 +18°C° 0 mm 1 mps 759 mmHg 72%
06:00 +20°C° 0 mm 1 mps 759 mmHg 63%
07:00 +22°C° 0 mm 1 mps 759 mmHg 54%
08:00 +25°C° 0 mm 2 mps 759 mmHg 43%
09:00 +29°C° 0 mm 2 mps 759 mmHg 33%
10:00 +33°C° 0 mm 3 mps 758 mmHg 23%
11:00 +36°C° 0 mm 2 mps 758 mmHg 19%
12:00 +38°C° 0 mm 2 mps 757 mmHg 16%
13:00 +41°C° 0 mm 2 mps 756 mmHg 12%
14:00 +42°C° 0 mm 3 mps 756 mmHg 12%
15:00 +42°C° 0 mm 4 mps 755 mmHg 12%
16:00 +43°C° 0 mm 4 mps 755 mmHg 11%
17:00 +40°C° 0 mm 4 mps 755 mmHg 16%
18:00 +35°C° 0 mm 4 mps 755 mmHg 21%
19:00 +32°C° 0 mm 4 mps 755 mmHg 26%
20:00 +29°C° 0 mm 4 mps 755 mmHg 32%
21:00 +26°C° 0 mm 3 mps 755 mmHg 39%
22:00 +24°C° 0 mm 3 mps 756 mmHg 45%
23:00 +22°C° 0 mm 3 mps 756 mmHg 50%

Day after tomorrow, 7 August, Saturday

Time Temperature Precipitation Wind Pressure Humidity
00:00 +21°C° 0 mm 3 mps 756 mmHg 55%
01:00 +19°C° 0 mm 3 mps 756 mmHg 60%
02:00 +19°C° 0 mm 2 mps 756 mmHg 65%
03:00 +18°C° 0 mm 2 mps 756 mmHg 70%
04:00 +17°C° 0 mm 2 mps 756 mmHg 75%
05:00 +18°C° 0 mm 2 mps 756 mmHg 69%
06:00 +20°C° 0 mm 2 mps 757 mmHg 63%
07:00 +21°C° 0 mm 2 mps 757 mmHg 57%
08:00 +26°C° 0 mm 2 mps 757 mmHg 46%
09:00 +29°C° 0 mm 2 mps 757 mmHg 35%
10:00 +34°C° 0 mm 2 mps 757 mmHg 24%
11:00 +36°C° 0 mm 2 mps 756 mmHg 21%
12:00 +38°C° 0 mm 3 mps 756 mmHg 17%
13:00 +41°C° 0 mm 4 mps 755 mmHg 13%
14:00 +41°C° 0 mm 4 mps 755 mmHg 14%
15:00 +40°C° 0 mm 5 mps 754 mmHg 15%
16:00 +40°C° 0 mm 6 mps 754 mmHg 16%
17:00 +35°C° 0 mm 5 mps 754 mmHg 25%
18:00 +30°C° 0 mm 5 mps 754 mmHg 33%
19:00 +27°C° 0 mm 5 mps 754 mmHg 41%
20:00 +25°C° 0 mm 4 mps 754 mmHg 48%
21:00 +22°C° 0 mm 4 mps 755 mmHg 56%
22:00 +20°C° 0 mm 3 mps 755 mmHg 63%
23:00 +19°C° 0 mm 3 mps 755 mmHg 67%

8 August, Sunday

Time Temperature Precipitation Wind Pressure Humidity
00:00 +18°C° 0 mm 3 mps 755 mmHg 70%
01:00 +17°C° 0 mm 3 mps 755 mmHg 74%
02:00 +17°C° 0 mm 3 mps 755 mmHg 76%
03:00 +16°C° 0 mm 3 mps 755 mmHg 78%
04:00 +16°C° 0 mm 3 mps 755 mmHg 80%
05:00 +17°C° 0 mm 3 mps 756 mmHg 75%
06:00 +18°C° 0 mm 3 mps 756 mmHg 70%
07:00 +20°C° 0 mm 3 mps 757 mmHg 64%
08:00 +24°C° 0 mm 3 mps 757 mmHg 53%
09:00 +27°C° 0 mm 3 mps 757 mmHg 43%
10:00 +30°C° 0 mm 2 mps 757 mmHg 32%
11:00 +33°C° 0 mm 3 mps 756 mmHg 28%
12:00 +36°C° 0 mm 3 mps 755 mmHg 24%
13:00 +38°C° 0 mm 4 mps 755 mmHg 20%
14:00 +37°C° 0 mm 4 mps 755 mmHg 21%
15:00 +37°C° 0 mm 5 mps 754 mmHg 22%
16:00 +38°C° 0 mm 6 mps 754 mmHg 23%
17:00 +33°C° 0 mm 6 mps 754 mmHg 33%
18:00 +28°C° 0 mm 5 mps 754 mmHg 42%
19:00 +25°C° 0 mm 5 mps 754 mmHg 51%
20:00 +22°C° 0 mm 5 mps 755 mmHg 56%
21:00 +20°C° 0 mm 4 mps 755 mmHg 62%
22:00 +18°C° 0 mm 3 mps 756 mmHg 67%
23:00 +17°C° 0 mm 3 mps 756 mmHg 69%

9 August, Monday

Time Temperature Precipitation Wind Pressure Humidity
00:00 +17°C° 0 mm 3 mps 756 mmHg 70%
01:00 +16°C° 0 mm 3 mps 756 mmHg 72%
02:00 +16°C° 0 mm 3 mps 756 mmHg 74%
03:00 +14°C° 0 mm 3 mps 756 mmHg 75%
04:00 +15°C° 0 mm 2 mps 756 mmHg 77%
05:00 +16°C° 0 mm 2 mps 757 mmHg 71%
06:00 +18°C° 0 mm 2 mps 757 mmHg 66%
07:00 +19°C° 0 mm 2 mps 757 mmHg 60%
08:00 +23°C° 0 mm 2 mps 757 mmHg 49%
09:00 +26°C° 0 mm 2 mps 757 mmHg 39%
10:00 +30°C° 0 mm 2 mps 757 mmHg 28%
11:00 +32°C° 0 mm 2 mps 757 mmHg 25%
12:00 +35°C° 0 mm 3 mps 756 mmHg 21%
13:00 +37°C° 0 mm 3 mps 756 mmHg 18%
14:00 +37°C° 0 mm 4 mps 755 mmHg 17%
15:00 +37°C° 0 mm 5 mps 755 mmHg 16%
16:00 +37°C° 0 mm 5 mps 755 mmHg 16%
17:00 +33°C° 0 mm 5 mps 755 mmHg 23%
18:00 +29°C° 0 mm 5 mps 755 mmHg 31%
19:00 +25°C° 0 mm 5 mps 755 mmHg 39%
20:00 +22°C° 0 mm 4 mps 756 mmHg 45%
21:00 +20°C° 0 mm 3 mps 756 mmHg 52%
22:00 +19°C° 0 mm 3 mps 756 mmHg 59%
23:00 +18°C° 0 mm 3 mps 757 mmHg 62%

10 August, Tuesday

Time Temperature Precipitation Wind Pressure Humidity
00:00 +17°C° 0 mm 3 mps 757 mmHg 66%
01:00 +17°C° 0 mm 3 mps 757 mmHg 69%
02:00 +16°C° 0 mm 2 mps 757 mmHg 71%
03:00 +16°C° 0 mm 2 mps 757 mmHg 72%
04:00 +16°C° 0 mm 2 mps 757 mmHg 74%
05:00 +17°C° 0 mm 2 mps 758 mmHg 67%
06:00 +18°C° 0 mm 2 mps 758 mmHg 61%
07:00 +20°C° 0 mm 2 mps 758 mmHg 54%
08:00 +24°C° 0 mm 2 mps 758 mmHg 43%
09:00 +28°C° 0 mm 2 mps 758 mmHg 33%
10:00 +32°C° 0 mm 2 mps 758 mmHg 22%
11:00 +35°C° 0 mm 2 mps 757 mmHg 19%
12:00 +38°C° 0 mm 2 mps 757 mmHg 16%
13:00 +40°C° 0 mm 2 mps 756 mmHg 13%
14:00 +40°C° 0 mm 3 mps 756 mmHg 13%
15:00 +42°C° 0 mm 4 mps 755 mmHg 13%
16:00 +42°C° 0 mm 4 mps 755 mmHg 13%
17:00 +37°C° 0 mm 4 mps 755 mmHg 19%
18:00 +33°C° 0 mm 5 mps 755 mmHg 24%
19:00 +29°C° 0 mm 5 mps 755 mmHg 29%
20:00 +27°C° 0 mm 4 mps 756 mmHg 34%
21:00 +25°C° 0 mm 3 mps 756 mmHg 38%
22:00 +22°C° 0 mm 3 mps 756 mmHg 43%
23:00 +21°C° 0 mm 3 mps 756 mmHg 46%
Show more